Simultaneous Nadir Overpasses (SNOs) Predictions

Prediction of SNOs between GOES-16 and AQUA Satellite Orbit:

Table of predicted SNOs for the next 14.0 days since TLE Epoch: 5/30/2025
Index Date Time (GOES-16) GOES-16 Lat,Lon AQUA Lat,Lon Distance(km) Time Diff (sec)
1 05/31/2025 09:13:48 0.01,-101.52 -0.62, -98.48 345.65 80
2 05/31/2025 21:35:49 -0.01,-101.80 -0.29,-103.17 154.65 80
3 06/03/2025 09:32:08 0.01,-103.12 -0.05,-102.90 25.57 80
4 06/03/2025 21:54:08 -0.01,-103.40 -0.91,-107.58 474.77 80
5 06/05/2025 21:31:17 -0.01,-104.46 0.41,-102.67 204.47 80
6 06/06/2025 09:53:07 0.01,-104.73 0.58,-107.30 293.34 80
7 06/08/2025 09:30:15 0.00,-105.78 -0.71,-102.39 385.64 80
8 06/08/2025 21:52:15 -0.00,-106.06 -0.22,-107.07 114.75 80
9 06/11/2025 09:48:33 -0.00,-107.38 -0.13,-106.80 66.43 80
10 06/11/2025 22:10:32 0.00,-107.66 -0.79,-111.48 434.33 80
